Location: Domont
(49.0278°N, 2.3264°E)
Time: 19:24:14
(UTC+00:00)

AO-109 - Pass Details

Date: 04 July 2022
Orbit: 470 x 506 km, 60.7° (Epoch: 09 August)

Event Time Altitude Azimuth Distance (km) Brightness Sun altitude
Exits shadow 02:55:44 - 200° (SSW) 1,766 ? -7.6°
Reaches altitude 10° 02:56:03 10° 198° (SSW) 1,645 ? -7.6°
Maximum altitude 02:59:31 39° 128° (SE) 734 ? -7.2°
Drops below altitude 10° 03:03:02 10° 59° (ENE) 1,677 ? -6.8°
Sets 03:05:17 0° 52° (NE) 2,570 ? -6.6°
